QPF
0.00 0.00 0.00 0.00 0.00 0.00 0.00 0.00 0.00 0.00 0.00 0.00 0.00 0.00 0.00 0.00 0.00 0.00 0.00 0.00 0.00 0.00 0.00 0.00 0.00 0.00 0.00 0.00 0.00 0.00 0.00 0.00 0.00 0.00 0.00 0.00 0.00 0.00 0.00 0.00 0.00 0.00 0.00 0.00
0.00 0.00 0.00 0.00 0.00 0.00 0.00 0.00 0.00 0.00 0.00 0.00 0.00 0.00 0.00 0.00 0.00 0.00 0.00 0.00 0.00 0.00 0.00 0.00 0.00 0.00 0.00 0.00 0.00 0.00 0.00 0.00 0.00 0.00 0.00 0.00 0.00 0.00 0.00 0.00 0.00 0.00 0.00 0.00
0.01 0.00 0.01 0.01 0.00 0.00 0.00 0.00 0.00 0.00 0.00 0.00 0.00 0.00 0.00 0.00 0.00 0.00 0.00 0.00 0.00 0.00 0.00 0.00 0.00 0.00 0.00 0.00 0.00 0.00 0.00 0.00 0.00 0.00 0.00 0.00 0.00 0.00 0.00 0.00 0.00 0.00 0.00 0.00
0.01 0.02 0.03 0.01 0.00 0.00 0.00 0.00 0.00 0.00 0.00 0.00 0.00 0.00 0.00 0.00 0.00 0.00 0.00 0.00 0.00 0.00 0.00 0.00 0.00 0.00 0.00 0.00 0.00 0.00 0.00 0.00 0.00 0.00 0.00 0.00 0.00 0.00 0.00 0.00 0.00 0.00 0.00 0.00
0.04 0.03 0.01 0.00 0.00 0.00 0.00 0.00 0.00 0.00 0.00 0.00 0.00 0.00 0.00 0.00 0.00 0.00 0.00 0.00 0.00 0.00 0.00 0.00 0.00 0.00 0.00 0.00 0.00 0.00 0.00 0.00 0.00 0.00 0.00 0.00 0.00 0.00 0.00 0.00 0.00 0.00 0.00 0.00
0.04 0.03 0.01 0.00 0.00 0.00 0.00 0.00 0.00 0.00 0.00 0.00 0.00 0.00 0.00 0.00 0.00 0.00 0.00 0.00 0.00 0.00 0.00 0.00 0.00 0.00 0.00 0.00 0.00 0.00 0.00 0.00 0.00 0.00 0.00 0.00 0.00 0.00 0.00 0.00 0.00 0.00 0.00 0.00
0.03 0.01 0.00 0.00 0.00 0.00 0.00 0.00 0.00 0.00 0.00 0.00 0.00 0.00 0.00 0.00 0.00 0.00 0.00 0.00 0.00 0.00 0.00 0.00 0.00 0.00 0.00 0.00 0.00 0.00 0.00 0.00 0.00 0.00 0.00 0.00 0.00 0.00 0.00 0.00 0.00 0.00 0.00 0.00
0.02 0.01 0.00 0.00 0.00 0.00 0.00 0.00 0.00 0.00 0.00 0.00 0.00 0.00 0.00 0.00 0.00 0.00 0.00 0.00 0.00 0.00 0.00 0.00 0.00 0.00 0.00 0.00 0.00 0.00 0.00 0.00 0.00 0.00 0.00 0.00 0.00 0.00 0.00 0.00 0.00 0.00 0.00 0.00
0.00 0.00 0.00 0.00 0.00 0.00 0.00 0.00 0.00 0.00 0.00 0.00 0.00 0.00 0.00 0.00 0.00 0.00 0.00 0.00 0.00 0.00 0.00 0.00 0.00 0.00 0.00 0.00 0.00 0.00 0.00 0.00 0.00 0.00 0.00 0.00 0.00 0.00 0.00 0.00 0.00 0.00 0.00 0.00
0.00 0.00 0.00 0.00 0.00 0.00 0.00 0.00 0.00 0.00 0.00 0.00 0.00 0.00 0.00 0.00 0.00 0.00 0.00 0.00 0.00 0.00 0.00 0.00 0.00 0.00 0.00 0.00 0.00 0.00 0.00 0.00 0.00 0.00 0.00 0.00 0.00 0.00 0.00 0.00 0.00 0.00 0.00 0.00
0.00 0.00 0.00 0.00 0.00 0.00 0.00 0.00 0.00 0.00 0.00 0.00 0.00 0.00 0.00 0.00 0.00 0.00 0.00 0.00 0.00 0.00 0.00 0.00 0.00 0.00 0.00 0.00 0.00 0.00 0.00 0.00 0.00 0.00 0.00 0.00 0.00 0.00 0.00 0.00 0.00 0.00 0.00 0.01
0.00 0.00 0.00 0.00 0.00 0.00 0.00 0.00 0.00 0.00 0.00 0.00 0.00 0.00 0.00 0.00 0.00 0.00 0.00 0.00 0.00 0.00 0.00 0.00 0.00 0.00 0.00 0.00 0.00 0.00 0.00 0.00 0.00 0.00 0.00 0.00 0.00 0.00 0.00 0.00 0.00 0.00 0.00 0.00
0.00 0.00 0.00 0.00 0.00 0.00 0.00 0.00 0.00 0.00 0.00 0.00 0.00 0.00 0.00 0.00 0.00 0.00 0.00 0.00 0.00 0.00 0.00 0.00 0.00 0.00 0.00 0.00 0.00 0.00 0.00 0.00 0.00 0.00 0.00 0.00 0.00 0.00 0.00 0.00 0.00 0.00 0.01 0.01
0.01 0.00 0.01 0.01 0.00 0.00 0.00 0.00 0.00 0.00 0.00 0.00 0.00 0.00 0.00 0.00 0.00 0.00 0.00 0.00 0.00 0.00 0.00 0.00 0.00 0.00 0.00 0.00 0.00 0.00 0.00 0.00 0.00 0.00 0.00 0.00 0.00 0.00 0.00 0.00 0.01 0.01 0.01 0.01
0.02 0.01 0.01 0.01 0.01 0.00 0.00 0.00 0.00 0.00 0.00 0.00 0.00 0.00 0.00 0.00 0.00 0.00 0.00 0.00 0.00 0.00 0.00 0.00 0.00 0.00 0.00 0.00 0.00 0.00 0.00 0.00 0.00 0.00 0.00 0.00 0.00 0.00 0.00 0.00 0.01 0.01 0.01 0.02
0.04 0.03 0.02 0.02 0.01 0.01 0.00 0.00 0.00 0.00 0.00 0.00 0.00 0.00 0.00 0.00 0.00 0.00 0.00 0.00 0.00 0.00 0.00 0.00 0.00 0.00 0.00 0.00 0.00 0.00 0.00 0.00 0.00 0.00 0.01 0.00 0.00 0.00 0.00 0.01 0.01 0.01 0.01 0.01
0.05 0.05 0.05 0.04 0.03 0.02 0.01 0.01 0.01 0.00 0.00 0.00 0.00 0.00 0.00 0.00 0.00 0.00 0.00 0.00 0.00 0.00 0.00 0.00 0.00 0.00 0.00 0.00 0.00 0.00 0.00 0.00 0.00 0.00 0.00 0.00 0.00 0.00 0.00 0.01 0.01 0.01 0.01 0.01
0.07 0.06 0.06 0.05 0.04 0.03 0.02 0.01 0.01 0.01 0.01 0.00 0.00 0.00 0.00 0.00 0.00 0.00 0.00 0.00 0.00 0.00 0.00 0.00 0.00 0.00 0.00 0.00 0.00 0.00 0.00 0.00 0.00 0.00 0.00 0.00 0.00 0.00 0.00 0.01 0.01 0.01 0.01 0.02
0.06 0.05 0.04 0.04 0.03 0.02 0.02 0.01 0.01 0.01 0.00 0.00 0.00 0.00 0.00 0.00 0.00 0.00 0.00 0.00 0.00 0.00 0.00 0.00 0.00 0.00 0.00 0.00 0.00 0.01 0.01 0.00 0.00 0.00 0.00 0.00 0.00 0.00 0.00 0.00 0.01 0.01 0.01 0.01
0.04 0.04 0.03 0.02 0.02 0.01 0.01 0.01 0.01 0.00 0.00 0.00 0.00 0.00 0.00 0.00 0.00 0.00 0.00 0.00 0.00 0.00 0.00 0.00 0.00 0.00 0.00 0.00 0.01 0.01 0.01 0.01 0.01 0.01 0.01 0.01 0.01 0.01 0.01 0.01 0.01 0.01 0.01 0.01
0.02 0.02 0.02 0.01 0.01 0.01 0.01 0.00 0.00 0.00 0.00 0.00 0.00 0.00 0.00 0.00 0.00 0.00 0.00 0.00 0.00 0.00 0.00 0.00 0.00 0.00 0.00 0.00 0.00 0.01 0.01 0.01 0.01 0.01 0.01 0.01 0.01 0.01 0.01 0.01 0.01 0.01 0.01 0.01
0.01 0.01 0.01 0.01 0.00 0.00 0.00 0.00 0.00 0.00 0.00 0.00 0.00 0.00 0.00 0.00 0.00 0.00 0.00 0.00 0.00 0.00 0.00 0.00 0.00 0.00 0.00 0.00 0.00 0.00 0.00 0.01 0.01 0.01 0.01 0.01 0.01 0.01 0.01 0.01 0.01 0.01 0.01 0.01
0.00 0.00 0.00 0.00 0.00 0.00 0.00 0.00 0.00 0.00 0.00 0.00 0.00 0.00 0.00 0.00 0.00 0.00 0.00 0.00 0.00 0.00 0.00 0.00 0.00 0.00 0.00 0.00 0.00 0.00 0.00 0.00 0.01 0.01 0.01 0.01 0.01 0.02 0.02 0.02 0.02 0.02 0.02 0.02
0.00 0.00 0.00 0.00 0.00 0.00 0.00 0.00 0.00 0.00 0.00 0.00 0.00 0.00 0.00 0.00 0.00 0.00 0.00 0.00 0.00 0.00 0.00 0.00 0.00 0.00 0.00 0.00 0.00 0.00 0.00 0.00 0.01 0.01 0.01 0.01 0.01 0.01 0.01 0.02 0.02 0.02 0.02 0.02
0.00 0.00 0.00 0.00 0.00 0.00 0.00 0.00 0.00 0.00 0.00 0.00 0.00 0.00 0.00 0.00 0.00 0.00 0.00 0.00 0.00 0.00 0.00 0.00 0.00 0.00 0.00 0.00 0.00 0.00 0.00 0.00 0.01 0.01 0.01 0.01 0.01 0.01 0.01 0.02 0.02 0.02 0.02 0.02
0.00 0.00 0.00 0.00 0.00 0.00 0.00 0.00 0.00 0.00 0.00 0.00 0.00 0.00 0.00 0.00 0.00 0.00 0.00 0.00 0.00 0.00 0.00 0.00 0.00 0.00 0.00 0.00 0.00 0.00 0.00 0.00 0.01 0.01 0.01 0.01 0.01 0.01 0.01 0.01 0.01 0.02 0.02 0.02
0.00 0.00 0.00 0.00 0.00 0.00 0.00 0.00 0.00 0.00 0.00 0.00 0.00 0.00 0.00 0.00 0.00 0.00 0.00 0.00 0.00 0.00 0.00 0.00 0.00 0.00 0.00 0.00 0.00 0.00 0.00 0.00 0.00 0.01 0.01 0.01 0.01 0.01 0.01 0.01 0.01 0.02 0.02 0.02
MSLP
1010.34 1010.92 1011.29 1011.46 1011.42 1011.21 1010.88 1010.48 1010.04 1009.62 1009.24 1008.92 1008.69 1008.55 1008.49 1008.50 1008.59 1008.74 1008.94 1009.19 1009.48 1009.80 1010.14 1010.49 1010.83 1011.15 1011.43 1011.67 1011.86 1012.02 1012.15 1012.28 1012.44 1012.66 1012.97 1013.38 1013.90 1014.51 1015.21 1015.97 1016.75 1017.53 1018.29 1019.01
1009.96 1010.38 1010.57 1010.56 1010.36 1010.03 1009.61 1009.17 1008.74 1008.37 1008.08 1007.88 1007.76 1007.72 1007.75 1007.81 1007.92 1008.05 1008.22 1008.42 1008.67 1008.95 1009.29 1009.66 1010.06 1010.46 1010.85 1011.22 1011.54 1011.83 1012.08 1012.32 1012.57 1012.85 1013.20 1013.63 1014.14 1014.74 1015.40 1016.11 1016.84 1017.56 1018.26 1018.93
1009.48 1009.73 1009.76 1009.59 1009.25 1008.80 1008.31 1007.82 1007.39 1007.05 1006.82 1006.69 1006.66 1006.69 1006.78 1006.89 1007.01 1007.14 1007.30 1007.47 1007.70 1007.98 1008.33 1008.74 1009.21 1009.71 1010.22 1010.72 1011.19 1011.62 1012.00 1012.37 1012.72 1013.08 1013.48 1013.93 1014.45 1015.02 1015.64 1016.30 1016.96 1017.62 1018.27 1018.89
1008.80 1008.91 1008.80 1008.51 1008.07 1007.54 1006.99 1006.48 1006.05 1005.73 1005.54 1005.47 1005.50 1005.59 1005.72 1005.87 1006.02 1006.17 1006.33 1006.52 1006.75 1007.06 1007.44 1007.90 1008.43 1009.02 1009.63 1010.25 1010.84 1011.40 1011.91 1012.39 1012.84 1013.28 1013.73 1014.21 1014.72 1015.27 1015.86 1016.46 1017.07 1017.67 1018.27 1018.85
1007.84 1007.84 1007.65 1007.29 1006.80 1006.25 1005.70 1005.20 1004.80 1004.52 1004.38 1004.35 1004.44 1004.59 1004.77 1004.97 1005.16 1005.35 1005.54 1005.76 1006.03 1006.36 1006.78 1007.28 1007.86 1008.51 1009.19 1009.89 1010.56 1011.21 1011.81 1012.37 1012.89 1013.39 1013.88 1014.38 1014.89 1015.42 1015.96 1016.52 1017.08 1017.65 1018.21 1018.77
1006.61 1006.55 1006.32 1005.95 1005.48 1004.97 1004.47 1004.04 1003.71 1003.50 1003.43 1003.48 1003.62 1003.84 1004.08 1004.34 1004.60 1004.84 1005.09 1005.36 1005.67 1006.04 1006.49 1007.01 1007.61 1008.27 1008.97 1009.69 1010.39 1011.07 1011.70 1012.30 1012.86 1013.38 1013.89 1014.39 1014.90 1015.41 1015.93 1016.45 1016.98 1017.51 1018.05 1018.61
1005.17 1005.08 1004.86 1004.54 1004.15 1003.74 1003.36 1003.04 1002.83 1002.74 1002.77 1002.92 1003.15 1003.45 1003.78 1004.11 1004.44 1004.77 1005.08 1005.41 1005.77 1006.17 1006.62 1007.14 1007.72 1008.34 1009.00 1009.67 1010.34 1010.98 1011.60 1012.18 1012.73 1013.25 1013.76 1014.25 1014.75 1015.24 1015.74 1016.24 1016.74 1017.26 1017.79 1018.35
1003.64 1003.54 1003.37 1003.13 1002.87 1002.61 1002.40 1002.25 1002.20 1002.27 1002.43 1002.70 1003.05 1003.44 1003.87 1004.30 1004.72 1005.12 1005.51 1005.90 1006.29 1006.71 1007.15 1007.63 1008.14 1008.69 1009.25 1009.82 1010.39 1010.95 1011.50 1012.02 1012.53 1013.03 1013.51 1013.99 1014.47 1014.95 1015.43 1015.91 1016.40 1016.90 1017.43 1017.99
1002.19 1002.09 1001.98 1001.86 1001.74 1001.67 1001.64 1001.69 1001.83 1002.07 1002.40 1002.80 1003.27 1003.78 1004.31 1004.83 1005.34 1005.83 1006.29 1006.72 1007.14 1007.55 1007.97 1008.38 1008.80 1009.23 1009.67 1010.11 1010.54 1010.98 1011.42 1011.86 1012.31 1012.75 1013.21 1013.67 1014.13 1014.59 1015.06 1015.53 1016.00 1016.50 1017.02 1017.57
1000.97 1000.89 1000.84 1000.83 1000.87 1000.97 1001.14 1001.39 1001.73 1002.14 1002.62 1003.16 1003.75 1004.37 1004.99 1005.60 1006.18 1006.74 1007.25 1007.72 1008.15 1008.55 1008.92 1009.25 1009.57 1009.87 1010.17 1010.46 1010.76 1011.06 1011.39 1011.74 1012.11 1012.51 1012.92 1013.36 1013.80 1014.25 1014.70 1015.16 1015.62 1016.09 1016.59 1017.12
1000.17 1000.09 1000.10 1000.18 1000.36 1000.62 1000.96 1001.39 1001.88 1002.45 1003.06 1003.72 1004.41 1005.10 1005.79 1006.46 1007.10 1007.69 1008.24 1008.73 1009.16 1009.54 1009.85 1010.11 1010.34 1010.52 1010.68 1010.84 1011.01 1011.20 1011.42 1011.68 1011.99 1012.33 1012.72 1013.13 1013.55 1013.99 1014.42 1014.86 1015.29 1015.73 1016.20 1016.70
999.92 999.85 999.89 1000.05 1000.32 1000.70 1001.17 1001.72 1002.33 1003.00 1003.70 1004.43 1005.17 1005.90 1006.62 1007.31 1007.96 1008.58 1009.13 1009.62 1010.04 1010.39 1010.66 1010.87 1011.01 1011.11 1011.17 1011.23 1011.30 1011.39 1011.53 1011.73 1011.98 1012.29 1012.64 1013.02 1013.43 1013.84 1014.25 1014.65 1015.05 1015.45 1015.87 1016.32
1000.31 1000.24 1000.30 1000.50 1000.82 1001.26 1001.80 1002.42 1003.09 1003.81 1004.54 1005.28 1006.01 1006.74 1007.44 1008.11 1008.75 1009.34 1009.88 1010.35 1010.76 1011.08 1011.32 1011.49 1011.59 1011.63 1011.63 1011.62 1011.62 1011.66 1011.75 1011.89 1012.10 1012.37 1012.69 1013.04 1013.42 1013.79 1014.17 1014.53 1014.88 1015.23 1015.59 1015.98
1001.35 1001.28 1001.35 1001.55 1001.90 1002.35 1002.91 1003.53 1004.20 1004.89 1005.60 1006.29 1006.98 1007.64 1008.28 1008.89 1009.47 1010.02 1010.52 1010.96 1011.34 1011.64 1011.87 1012.01 1012.09 1012.11 1012.08 1012.04 1012.01 1012.01 1012.06 1012.17 1012.34 1012.57 1012.85 1013.16 1013.49 1013.82 1014.14 1014.45 1014.74 1015.03 1015.34 1015.67
1003.00 1002.94 1003.00 1003.20 1003.52 1003.95 1004.47 1005.05 1005.66 1006.29 1006.91 1007.52 1008.10 1008.66 1009.20 1009.72 1010.22 1010.69 1011.13 1011.53 1011.87 1012.16 1012.37 1012.51 1012.59 1012.60 1012.57 1012.52 1012.47 1012.45 1012.47 1012.54 1012.67 1012.85 1013.07 1013.33 1013.60 1013.87 1014.13 1014.37 1014.61 1014.84 1015.08 1015.36
1005.17 1005.12 1005.18 1005.35 1005.63 1006.00 1006.44 1006.94 1007.45 1007.97 1008.48 1008.96 1009.42 1009.86 1010.28 1010.68 1011.07 1011.46 1011.82 1012.17 1012.47 1012.73 1012.94 1013.07 1013.15 1013.17 1013.14 1013.09 1013.03 1012.98 1012.96 1012.98 1013.05 1013.17 1013.32 1013.51 1013.70 1013.89 1014.08 1014.26 1014.43 1014.61 1014.80 1015.02
1007.71 1007.68 1007.72 1007.85 1008.07 1008.36 1008.71 1009.10 1009.50 1009.90 1010.27 1010.63 1010.95 1011.25 1011.53 1011.81 1012.10 1012.38 1012.67 1012.95 1013.21 1013.43 1013.62 1013.75 1013.82 1013.83 1013.80 1013.74 1013.65 1013.57 1013.50 1013.46 1013.46 1013.49 1013.56 1013.65 1013.76 1013.87 1013.99 1014.10 1014.21 1014.34 1014.48 1014.66
1010.43 1010.42 1010.44 1010.52 1010.67 1010.88 1011.13 1011.41 1011.69 1011.96 1012.21 1012.43 1012.62 1012.79 1012.96 1013.12 1013.29 1013.48 1013.68 1013.89 1014.10 1014.28 1014.43 1014.54 1014.59 1014.59 1014.54 1014.44 1014.32 1014.18 1014.05 1013.94 1013.85 1013.79 1013.77 1013.76 1013.78 1013.81 1013.85 1013.90 1013.96 1014.04 1014.15 1014.29
1013.14 1013.12 1013.12 1013.15 1013.23 1013.35 1013.51 1013.69 1013.86 1014.02 1014.16 1014.27 1014.35 1014.41 1014.47 1014.53 1014.60 1014.70 1014.82 1014.96 1015.10 1015.23 1015.34 1015.40 1015.42 1015.39 1015.30 1015.16 1014.98 1014.79 1014.58 1014.39 1014.21 1014.06 1013.94 1013.85 1013.78 1013.73 1013.71 1013.70 1013.71 1013.75 1013.82 1013.93
1015.63 1015.60 1015.57 1015.55 1015.56 1015.61 1015.68 1015.77 1015.86 1015.94 1015.99 1016.01 1016.01 1015.98 1015.95 1015.93 1015.92 1015.94 1015.98 1016.04 1016.11 1016.18 1016.23 1016.25 1016.22 1016.14 1016.00 1015.81 1015.58 1015.32 1015.05 1014.78 1014.52 1014.29 1014.09 1013.92 1013.78 1013.67 1013.59 1013.53 1013.50 1013.50 1013.53 1013.60
1017.75 1017.70 1017.63 1017.56 1017.51 1017.50 1017.51 1017.54 1017.57 1017.58 1017.57 1017.53 1017.47 1017.38 1017.29 1017.19 1017.11 1017.06 1017.03 1017.02 1017.03 1017.03 1017.02 1016.98 1016.90 1016.77 1016.58 1016.34 1016.06 1015.75 1015.42 1015.09 1014.78 1014.48 1014.22 1013.99 1013.80 1013.64 1013.52 1013.42 1013.35 1013.32 1013.31 1013.33
1019.41 1019.33 1019.21 1019.10 1019.02 1018.96 1018.93 1018.92 1018.91 1018.88 1018.83 1018.76 1018.65 1018.52 1018.37 1018.22 1018.08 1017.97 1017.87 1017.79 1017.73 1017.68 1017.61 1017.52 1017.39 1017.21 1016.99 1016.71 1016.39 1016.05 1015.69 1015.32 1014.97 1014.64 1014.34 1014.08 1013.85 1013.66 1013.51 1013.38 1013.28 1013.20 1013.15 1013.12
1020.58 1020.46 1020.31 1020.17 1020.06 1019.98 1019.93 1019.90 1019.87 1019.83 1019.75 1019.65 1019.51 1019.34 1019.15 1018.96 1018.77 1018.59 1018.44 1018.30 1018.18 1018.07 1017.95 1017.81 1017.64 1017.43 1017.18 1016.89 1016.56 1016.20 1015.83 1015.46 1015.10 1014.75 1014.44 1014.17 1013.92 1013.71 1013.53 1013.38 1013.24 1013.12 1013.03 1012.95
1021.29 1021.13 1020.96 1020.81 1020.69 1020.61 1020.56 1020.53 1020.50 1020.44 1020.36 1020.23 1020.07 1019.86 1019.64 1019.40 1019.16 1018.93 1018.72 1018.53 1018.36 1018.20 1018.04 1017.87 1017.68 1017.45 1017.19 1016.90 1016.57 1016.22 1015.86 1015.50 1015.15 1014.82 1014.51 1014.23 1013.99 1013.76 1013.56 1013.38 1013.22 1013.06 1012.91 1012.78
1021.58 1021.41 1021.23 1021.10 1020.99 1020.94 1020.90 1020.88 1020.85 1020.79 1020.70 1020.55 1020.36 1020.12 1019.85 1019.56 1019.28 1019.00 1018.75 1018.51 1018.30 1018.11 1017.92 1017.73 1017.53 1017.30 1017.05 1016.76 1016.45 1016.13 1015.79 1015.45 1015.12 1014.81 1014.52 1014.25 1014.00 1013.77 1013.56 1013.35 1013.16 1012.97 1012.78 1012.60
1021.55 1021.38 1021.23 1021.12 1021.06 1021.04 1021.03 1021.03 1021.01 1020.95 1020.84 1020.67 1020.44 1020.16 1019.85 1019.52 1019.19 1018.87 1018.58 1018.31 1018.08 1017.86 1017.66 1017.46 1017.26 1017.03 1016.79 1016.53 1016.24 1015.94 1015.63 1015.31 1015.01 1014.71 1014.44 1014.18 1013.93 1013.70 1013.47 1013.25 1013.03 1012.80 1012.58 1012.37
1021.27 1021.12 1021.02 1020.97 1020.96 1020.99 1021.02 1021.04 1021.03 1020.95 1020.82 1020.62 1020.36 1020.04 1019.69 1019.32 1018.96 1018.61 1018.29 1018.00 1017.75 1017.52 1017.31 1017.11 1016.91 1016.70 1016.47 1016.23 1015.96 1015.67 1015.38 1015.09 1014.80 1014.52 1014.25 1014.00 1013.75 1013.51 1013.27 1013.04 1012.79 1012.55 1012.30 1012.06
Thickness
5547 5548 5548 5546 5546 5545 5548 5560 5565 5587 5599 5615 5615 5615 5616 5616 5615 5613 5614 5616 5617 5618 5618 5617 5617 5618 5619 5620 5620 5620 5622 5622 5623 5621 5619 5615 5611 5607 5602 5597 5593 5586 5580 5572
5517 5530 5537 5536 5542 5544 5551 5562 5571 5583 5598 5617 5610 5605 5605 5606 5605 5606 5611 5613 5612 5611 5610 5610 5610 5610 5609 5609 5608 5608 5609 5609 5607 5605 5602 5599 5596 5592 5587 5582 5577 5571 5565 5560
5511 5508 5512 5520 5546 5551 5555 5565 5571 5578 5603 5599 5593 5594 5598 5600 5601 5604 5609 5610 5608 5608 5608 5606 5604 5602 5601 5599 5596 5595 5594 5592 5590 5589 5587 5584 5581 5577 5573 5568 5563 5557 5551 5546
5494 5491 5500 5549 5562 5559 5560 5568 5575 5583 5593 5593 5592 5592 5593 5595 5597 5601 5603 5604 5604 5603 5603 5600 5596 5593 5590 5587 5584 5582 5580 5578 5576 5575 5572 5569 5566 5563 5559 5554 5549 5544 5538 5533
5492 5504 5521 5544 5548 5558 5557 5566 5577 5578 5583 5578 5575 5572 5582 5589 5590 5594 5596 5596 5597 5595 5594 5590 5586 5583 5578 5574 5572 5570 5569 5566 5564 5561 5558 5555 5552 5549 5544 5539 5535 5530 5524 5519
5491 5506 5520 5558 5554 5551 5547 5555 5580 5575 5575 5570 5560 5562 5586 5587 5582 5582 5582 5583 5583 5582 5579 5576 5573 5570 5566 5563 5561 5560 5558 5554 5551 5547 5544 5542 5538 5534 5529 5525 5521 5515 5509 5504
5499 5512 5533 5546 5538 5541 5538 5566 5571 5571 5571 5565 5562 5572 5577 5570 5567 5566 5567 5567 5567 5566 5564 5563 5559 5556 5554 5552 5551 5548 5543 5539 5536 5534 5531 5528 5523 5519 5515 5510 5504 5498 5493 5488
5499 5507 5532 5529 5527 5544 5558 5557 5557 5559 5561 5560 5561 5559 5555 5552 5550 5549 5549 5549 5549 5549 5547 5545 5543 5542 5542 5540 5536 5532 5529 5526 5522 5519 5516 5512 5508 5504 5499 5495 5489 5483 5477 5471
5518 5531 5529 5526 5535 5540 5541 5544 5544 5545 5545 5546 5544 5543 5540 5536 5533 5531 5531 5530 5530 5530 5529 5528 5527 5527 5527 5524 5520 5517 5514 5510 5507 5503 5500 5497 5494 5490 5485 5480 5477 5471 5465 5459
5498 5510 5510 5510 5513 5516 5520 5525 5525 5527 5528 5530 5530 5527 5521 5516 5513 5512 5511 5511 5511 5513 5512 5510 5509 5508 5508 5506 5504 5502 5500 5496 5492 5488 5485 5481 5479 5476 5473 5469 5465 5459 5454 5447
5494 5495 5492 5495 5500 5503 5502 5502 5503 5503 5505 5510 5511 5506 5504 5499 5496 5494 5493 5493 5494 5496 5496 5494 5493 5492 5490 5489 5488 5487 5484 5481 5477 5475 5471 5467 5464 5461 5459 5457 5455 5450 5445 5439
5502 5494 5498 5496 5488 5488 5488 5488 5487 5486 5483 5483 5487 5486 5483 5479 5477 5476 5476 5476 5477 5477 5477 5476 5475 5474 5473 5472 5472 5471 5468 5465 5463 5459 5455 5452 5448 5443 5441 5438 5435 5432 5428 5424
5459 5465 5469 5467 5466 5467 5468 5466 5465 5466 5466 5464 5462 5464 5463 5460 5457 5457 5457 5457 5458 5457 5457 5457 5457 5456 5454 5455 5455 5454 5453 5450 5447 5443 5440 5437 5433 5430 5425 5420 5417 5414 5411 5407
5432 5443 5446 5445 5444 5444 5443 5441 5440 5437 5436 5438 5439 5440 5441 5440 5438 5437 5437 5436 5437 5437 5436 5437 5437 5436 5435 5436 5437 5436 5435 5433 5430 5427 5424 5421 5418 5416 5412 5408 5403 5399 5394 5390
5407 5421 5424 5420 5418 5418 5420 5421 5420 5417 5415 5414 5415 5417 5419 5420 5418 5415 5414 5415 5417 5417 5417 5417 5417 5416 5415 5417 5418 5418 5417 5415 5413 5410 5407 5405 5402 5399 5396 5392 5390 5385 5378 5374
5382 5391 5394 5395 5394 5393 5396 5399 5400 5395 5393 5393 5393 5393 5395 5396 5395 5393 5393 5395 5398 5397 5394 5395 5396 5395 5396 5397 5398 5398 5397 5395 5394 5392 5389 5387 5384 5382 5379 5376 5373 5369 5364 5360
5365 5367 5368 5370 5369 5367 5367 5369 5371 5369 5369 5369 5369 5371 5373 5375 5375 5373 5372 5372 5373 5371 5371 5372 5373 5374 5375 5377 5378 5379 5378 5376 5374 5373 5371 5369 5367 5365 5362 5359 5356 5353 5349 5344
5325 5332 5338 5343 5345 5344 5341 5340 5341 5342 5343 5344 5347 5350 5351 5352 5352 5350 5350 5352 5352 5351 5349 5349 5352 5352 5354 5355 5356 5358 5357 5356 5355 5354 5352 5350 5348 5346 5343 5341 5339 5335 5331 5325
5294 5300 5304 5308 5311 5314 5313 5311 5311 5313 5315 5320 5325 5326 5325 5324 5324 5326 5328 5330 5332 5332 5326 5326 5330 5331 5332 5332 5334 5334 5335 5335 5333 5332 5330 5328 5326 5325 5322 5320 5318 5315 5311 5305
5269 5273 5276 5278 5280 5282 5283 5284 5287 5289 5290 5294 5299 5301 5301 5299 5299 5302 5305 5305 5302 5301 5301 5304 5307 5309 5309 5309 5311 5311 5312 5312 5311 5310 5308 5307 5306 5304 5301 5299 5296 5293 5289 5286
5245 5249 5252 5254 5254 5255 5256 5259 5263 5266 5267 5270 5274 5275 5275 5275 5276 5279 5285 5288 5279 5278 5280 5282 5284 5285 5286 5287 5288 5288 5288 5288 5287 5287 5285 5284 5283 5281 5279 5276 5274 5271 5268 5264
5222 5225 5228 5231 5233 5234 5233 5236 5239 5242 5244 5246 5247 5249 5252 5254 5255 5257 5256 5257 5255 5256 5258 5260 5262 5262 5264 5264 5265 5264 5264 5263 5262 5262 5261 5260 5259 5257 5256 5253 5250 5248 5245 5242
5200 5203 5206 5208 5210 5212 5213 5214 5216 5219 5220 5222 5224 5226 5229 5229 5231 5236 5239 5234 5233 5234 5236 5237 5239 5240 5241 5241 5240 5240 5239 5238 5237 5236 5235 5234 5233 5232 5231 5229 5226 5224 5221 5218
5181 5183 5184 5186 5189 5193 5196 5196 5195 5196 5197 5199 5201 5201 5203 5207 5209 5208 5208 5208 5209 5210 5212 5214 5216 5218 5217 5216 5216 5215 5214 5213 5212 5211 5210 5208 5207 5206 5204 5203 5201 5199 5196 5194
5161 5163 5165 5168 5172 5176 5176 5175 5175 5177 5179 5181 5182 5182 5182 5183 5184 5186 5185 5186 5187 5188 5190 5191 5191 5191 5191 5191 5190 5190 5189 5188 5187 5185 5184 5183 5182 5180 5179 5177 5175 5173 5172 5170
5144 5147 5148 5149 5151 5153 5154 5155 5157 5159 5159 5161 5163 5162 5162 5162 5162 5163 5163 5164 5165 5165 5166 5166 5166 5166 5166 5166 5166 5165 5164 5164 5163 5162 5160 5159 5158 5156 5155 5153 5151 5150 5148 5146
5126 5128 5129 5132 5134 5134 5134 5135 5136 5138 5138 5138 5139 5141 5140 5141 5141 5142 5143 5144 5144 5144 5144 5144 5144 5143 5143 5143 5142 5142 5141 5140 5140 5139 5137 5136 5135 5134 5132 5130 5129 5128 5126 5124